Home   Weather   Tábor   Past weeks

Flag for Czech Republic Past Weather in Tábor, Czech Republic — Yesterday and Last 2 Weeks

Now
63 °F

Mild.


Feels Like: 63 °F
Forecast: 63 / 79 °F
Wind: 3 mph from Northwest

Location: Kocelovice

Current Time: Jul 21, 2017 at 2:53:51 am

Latest Report: Jul 21, 2017 at 2:00 am


Visibility: 13 mi

Pressure: 29.95 "Hg

Humidity: 88%

Dew Point: 60 °F

Location of TáborLocation

Past Weather in Tábor — Graph

°F

Tábor Temperature Yesterday

Maximum temperature yesterday: 84 °F (at 2:00 pm)
Minimum temperature yesterday: 62 °F (at 6:00 am)
Average temperature yesterday: 72 °F

High & Low Weather Summary for the Past Weeks

 TemperatureHumidityPressure
High84 °F (Jul 19, 5:00 pm)100% (Jul 16, 2:00 am)30.28 "Hg (Jul 16, 2:00 am)
Low49 °F (Jul 16, 6:00 am)36% (Jul 8, 4:00 pm)29.71 "Hg (Jul 10, 6:00 pm)
Average67 °F70%29.99 "Hg
* Reported Jul 6 1:00 am — Jul 21 1:00 am, Tábor. Weather by CustomWeather, © 2017

Note: Actual official high and low records may vary slightly from our data, if they occured in-between our weather recording intervals... More about our weather records

Advertising

Tábor Weather History for the Previous 24 Hours

Scroll right to see more
 ConditionsComfort  
Time TempWeatherWind HumidityBarometerVisibility
1:00 am
Fri, Jul 21
64 °FMild.5 mph85%29.94 "Hg12 mi
12:00 am66 °FMild.3 mph79%29.93 "Hg12 mi
11:00 pm
Thu, Jul 20
67 °FMild.3 mph78%29.93 "Hg12 mi
10:00 pm68 °FLight rain. Overcast.5 mph78%29.91 "Hg11 mi
9:00 pm70 °FLight rain. Overcast.N/A81%29.87 "Hg11 mi
8:00 pm70 °FThunderstorms. Overcast.3 mph79%29.86 "Hg12 mi
7:00 pm72 °FThunderstorms. Overcast.5 mph69%29.83 "Hg5 mi
6:00 pm75 °FThunderstorms. Overcast.6 mph61%29.80 "Hg8 mi
5:00 pm81 °FOvercast.6 mph48%29.77 "Hg22 mi
4:00 pm82 °FOvercast.5 mph38%29.77 "Hg25 mi
3:00 pm83 °FPartly sunny.6 mph41%29.78 "Hg37 mi
2:00 pm84 °FPartly sunny.3 mph39%29.78 "Hg40 mi
1:00 pm82 °FScattered clouds.6 mph41%29.80 "Hg40 mi
12:00 pm80 °FPartly sunny.5 mph43%29.81 "Hg40 mi
11:00 am78 °FPartly sunny.5 mph51%29.82 "Hg40 mi
10:00 am75 °FScattered clouds.5 mph58%29.84 "Hg37 mi
9:00 am71 °FPartly sunny.3 mph68%29.86 "Hg34 mi
8:00 am68 °FPartly sunny.N/A77%29.87 "Hg28 mi
7:00 am64 °FMild.N/A88%29.88 "Hg12 mi
6:00 am62 °FCool.2 mph89%29.90 "Hg12 mi
5:00 am64 °FMild.3 mph85%29.90 "Hg12 mi
4:00 am62 °FMild.3 mph95%29.90 "Hg12 mi
3:00 am64 °FMild.1 mph79%29.87 "Hg12 mi
2:00 am64 °FMild.2 mph85%29.87 "Hg12 mi
Weather by CustomWeather, © 2017

See weather overviewHow to use our weather pages